Weather History for Maxwell AFB, AL

Change the Weather History Date:

Thursday, February 6, 2014

  Actual Average Record
Temperature  
Mean Temperature 35 °F -  
Max Temperature 41 °F 59 °F 77 °F (1999)
Min Temperature 29 °F 39 °F 25 °F (2009)
Degree Days  
Heating Degree Days 30    
Moisture  
Dew Point 26 °F    
Average Humidity 71    
Maximum Humidity 92    
Minimum Humidity 55    
Precipitation  
Precipitation 0.00 in - - ()
Sea Level Pressure  
Sea Level Pressure 30.33 in    
Wind  
Wind Speed 10 mph (WNW)    
Max Wind Speed 15 mph    
Max Gust Speed -    
Visibility 10 miles    
Events Rain , Snow    
Averages and records for this station are not official NWS values.
T = Trace of Precipitation, MM = Missing Value Source: NWS Daily Summary

Daily Weather History Graph

Daily Weather History Graph

Search for Another Location

Airport:

Trip Planner

Search our weather history database for the weather conditions in past years. The results will help you decide how hot, cold, wet, or windy it might be!

Date:

Astronomy

Feb. 06, 2014 Rise Set
Actual Time 6:36 AM CST 5:23 PM CST
Civil Twilight 6:10 AM CST 5:48 PM CST
Nautical Twilight 5:41 AM CST 6:18 PM CST
Astronomical Twilight 5:12 AM CST 6:46 PM CST
Moon 10:56 AM CST (2/6) No Moon Set
Length of Visible Light 11h 38m
Length of Day
10h 47m
Waxing Crescent, 49% of the Moon is Illuminated
Feb 6
Waxing Crescent
Feb 6
First Quarter
Feb 14
Full
Feb 22
Last Quarter
Mar 1
New

Hourly Weather History & Observations

Time (CST) Temp. Windchill Dew Point Humidity Pressure Visibility Wind Dir Wind Speed Gust Speed Precip Events Conditions
12:58 AM 34.5 °F 27.3 °F 26.4 °F 72% 30.31 in 10.0 mi West 9.2 mph - N/A   Overcast
1:48 AM 32.0 °F 22.5 °F 24.8 °F 75% 30.30 in 10.0 mi WNW 12.7 mph - N/A   Overcast
1:58 AM 33.3 °F 24.1 °F 25.0 °F 72% 30.32 in 10.0 mi WNW 12.7 mph - N/A   Overcast
2:08 AM 32.0 °F 23.6 °F 24.8 °F 75% 30.30 in 10.0 mi WNW 10.4 mph - N/A   Overcast
2:13 AM 32.0 °F 22.5 °F 24.8 °F 75% 30.29 in 10.0 mi WNW 12.7 mph - N/A   Overcast
2:18 AM 32.0 °F 21.6 °F 24.8 °F 75% 30.30 in 10.0 mi WNW 15.0 mph - N/A   Overcast
2:58 AM 32.4 °F 23.5 °F 24.1 °F 72% 30.30 in 10.0 mi WNW 11.5 mph - N/A   Overcast
3:48 AM 32.0 °F 22.1 °F 24.8 °F 75% 30.28 in 10.0 mi WNW 13.8 mph - N/A   Overcast
3:58 AM 32.7 °F 23.4 °F 24.4 °F 72% 30.32 in 10.0 mi WNW 12.7 mph - N/A   Overcast
4:23 AM 32.0 °F 23.0 °F 24.8 °F 75% 30.32 in 10.0 mi WNW 11.5 mph - N/A   Overcast
4:33 AM 32.0 °F 24.8 °F 24.8 °F 75% 30.32 in 10.0 mi WNW 8.1 mph - N/A   Overcast
4:43 AM 32.0 °F 24.2 °F 24.8 °F 75% 30.32 in 10.0 mi West 9.2 mph - N/A   Overcast
4:53 AM 32.0 °F 23.6 °F 24.8 °F 75% 30.33 in 10.0 mi West 10.4 mph - N/A   Overcast
4:58 AM 32.0 °F 24.2 °F 24.8 °F 75% 30.35 in 10.0 mi West 9.2 mph - N/A   Overcast
5:13 AM 32.0 °F 23.6 °F 24.8 °F 75% 30.33 in 10.0 mi WNW 10.4 mph - N/A   Overcast
5:18 AM 32.0 °F 23.6 °F 24.8 °F 75% 30.33 in 10.0 mi West 10.4 mph - N/A   Overcast
5:23 AM 32.0 °F 23.6 °F 24.8 °F 75% 30.33 in 10.0 mi West 10.4 mph - N/A   Overcast
5:28 AM 32.0 °F 23.0 °F 24.8 °F 75% 30.33 in 10.0 mi WNW 11.5 mph - N/A   Overcast
5:33 AM 32.0 °F 24.2 °F 24.8 °F 75% 30.32 in 10.0 mi WNW 9.2 mph - N/A   Overcast
5:58 AM 32.7 °F 23.9 °F 24.3 °F 71% 30.35 in 10.0 mi WNW 11.5 mph - N/A   Overcast
6:58 AM 32.5 °F 23.7 °F 24.1 °F 71% 30.35 in 10.0 mi WNW 11.5 mph - N/A   Overcast
7:58 AM 32.9 °F 23.7 °F 23.2 °F 67% 30.37 in 10.0 mi WNW 12.7 mph - N/A   Overcast
8:58 AM 35.6 °F 27.5 °F 24.3 °F 63% 30.38 in 10.0 mi NW 11.5 mph - N/A   Mostly Cloudy
9:58 AM 36.9 °F 30.7 °F 24.6 °F 61% 30.40 in 10.0 mi WNW 8.1 mph - N/A   Mostly Cloudy
10:58 AM 39.0 °F 31.8 °F 25.5 °F 58% 30.35 in 10.0 mi NW 11.5 mph - N/A   Overcast
11:58 AM 40.6 °F 35.4 °F 25.7 °F 55% 30.33 in 10.0 mi NW 8.1 mph - N/A   Overcast
12:58 PM 41.0 °F 35.8 °F 26.1 °F 55% 30.27 in 10.0 mi NW 8.1 mph - N/A   Overcast
1:58 PM 41.7 °F 36.1 °F 27.1 °F 56% 30.30 in 10.0 mi West 9.2 mph - N/A   Scattered Clouds
2:58 PM 40.8 °F 35.0 °F 27.3 °F 59% 30.33 in 10.0 mi WSW 9.2 mph - N/A   Mostly Cloudy
3:58 PM 39.4 °F 31.8 °F 27.7 °F 63% 30.35 in 10.0 mi WNW 12.7 mph - N/A   Mostly Cloudy
4:49 PM 39.2 °F 34.2 °F 26.6 °F 61% 30.31 in 10.0 mi WNW 6.9 mph - N/A   Light Ice Pellets
4:58 PM 38.5 °F 32.1 °F 27.0 °F 63% 30.32 in 10.0 mi WNW 9.2 mph - 0.00 in   Light Ice Pellets
5:07 PM 39.2 °F 33.0 °F 26.6 °F 61% 30.31 in 10.0 mi WNW 9.2 mph - N/A Rain Light Rain
5:22 PM 37.4 °F 30.3 °F 28.4 °F 70% 30.32 in 10.0 mi West 10.4 mph - N/A Rain , Snow Light Rain
5:37 PM 37.4 °F 29.8 °F 28.4 °F 70% 30.32 in 10.0 mi West 11.5 mph - N/A   Overcast
5:42 PM 37.4 °F 31.4 °F 28.4 °F 70% 30.32 in 10.0 mi WNW 8.1 mph - N/A Rain Light Rain
5:51 PM 37.4 °F 31.4 °F 28.4 °F 70% 30.31 in 10.0 mi WNW 8.1 mph - N/A   Mostly Cloudy
5:54 PM 37.4 °F 32.1 °F 28.4 °F 70% 30.32 in 10.0 mi NW 6.9 mph - N/A Rain Light Rain
5:58 PM 37.4 °F 32.1 °F 28.4 °F 70% 30.34 in 10.0 mi NW 6.9 mph - 0.00 in Rain Light Rain
5:59 PM 37.4 °F 31.4 °F 28.4 °F 70% 30.32 in 10.0 mi NW 8.1 mph - N/A   Mostly Cloudy
6:58 PM 35.8 °F 30.9 °F 28.0 °F 73% 30.35 in 10.0 mi WNW 5.8 mph - 0.00 in   Scattered Clouds
7:58 PM 34.3 °F 29.2 °F 28.2 °F 78% 30.37 in 10.0 mi West 5.8 mph - N/A   Clear
8:58 PM 32.7 °F - 27.5 °F 81% 30.37 in 10.0 mi WNW 1.2 mph - N/A   Clear
9:58 PM 30.6 °F - 27.9 °F 90% 30.34 in 10.0 mi East 2.3 mph - N/A   Clear
10:58 PM 29.8 °F - 27.9 °F 92% 30.32 in 10.0 mi SW 1.2 mph - N/A   Clear
11:58 PM 29.8 °F 23.9 °F 27.9 °F 92% 30.34 in 10.0 mi WSW 5.8 mph - N/A   Clear